Find Tianqi Xingzuo 1-22

NORAD ID: 59909 Int'l Des: 2024-102 Owner: GUOG Country: CN Constellation: tianqi operational
LEOCIRCULAR

实时位置

正在加载3D地球...

关于 Tianqi Xingzuo 1-22

正在加载描述...

即将过境

Passes for default location (London). Set your location on the main map for personalized predictions.

高度历史

Loading altitude history...

两行轨道根数

1 59909U 24102A 26107.26089945 .00000040 00000-0 11572-3 0 9993
2 59909 44.9760 173.0537 0011583 305.0125 54.9620 13.99150887 96376
Epoch: Apr 17, 2026 • Age: 12 hours

当前状态

高度 906.5 km
速度 7.40 km/s
星下点 44.69°N, 125.04°E
发射日期 May 29, 2024
运行时间 1.8 years
类型 other

技术详情

分类 Payload
质量 40.00 kg
干质量 40.00 kg
总质量 40.00 kg
长度 0.50 m
直径 0.30 m
跨度 0.50 m
形状 Box
制造商 ASES
平台类型 StarLightB
阶段状态 In Orbit
所有者/国家 GUOG/CN

Most Searched